Showing default

O3B FM15, 43231

Orbit data source: Space-Track

O3B FM15, 43231 is a payload satellite owned by O3B SES (JE) that was launched on Fri, 09 Mar 2018 UTC via a SOYUZ-ST-B launch vehicle from the French Guiana (FRGUI). Payload-class satellites include a variety of spacecraft equipped with specific instruments for various scientific and technological missions. These include communications satellites like Starlink; space stations such as the ISS; scientific satellites like the Hubble; Earth observation satellites from companies like Planet Labs, Umbra, and HawkEye 360; GPS; miniature CubeSats for education and research; and military/defense satellites.

Loading next visibility...
Identifier
43231, 2018-024A
Orbit
Active
Country
Flag of UnknownUnknown / O3B
Related business
Manufacturer
Thales Alenia
Mission
Operational Commercial Communications
Bus & Motor
PRISMA?, LS-400 AOCS?
Mass
700 kg wet, ~500 kg dry
Launch date (UTC)
2018-03-09 (8 years ago)
Launch vehicle
SOYUZ-ST-B
Launch site
French Guiana (FRGUI)
Object type
Payload
Rocket body
Debris
Shape & HBR
Trap Box + 2 Pan, 6.0 m
Radar Cross Section
21.980 m², Large (>1 m²)

Expand to show TLE details & history
Last TLE update: 2 days ago

TLE from 2 days ago
0 O3B FM15
1 43231U 18024A   25305.61736008 -.00000011  00000-0  00000-0 0  9997
2 43231   0.0469 356.7772 0002900 220.3412 142.8691  5.00115409139634
Epoch: 2025-11-01T14:48Z
TLE epoch observation values (Epoch: 2025-11-01T14:48:59.910Z)
Latitude
0.0066°
Longitude
96.60539°
Altitude
8,067.715 km
Speed
5.253 km/s
True Right ascension
23h 59m 59s
True Declination
0° 00' 24"
Sunlit
Object was in daylight at epoch
Visualization orbit readout
Latitude
Unknown
Longitude
Unknown
Altitude
Unknown
Speed
Unknown
Apparent Right ascension
Unknown
Apparent Declination
Unknown
Sunlit
N/A
Visualization observer readout
Local Sidereal Time
10:57:02
Azimuth
Unknown
Elevation
Unknown
Doppler factor
Unknown
Orbital elements
Apogee altitude
8,073.14 km
Perigee altitude
8,064.761 km
Semi-major axis
14,447.087 km
Eccentricity
0.00029
Inclination
0.0469°
RAAN
356.7772°
Arg. of periapsis
220.3412°
True anomaly
142.88915°
Mean anomaly
142.8691°
Eccentric anomaly
142.87913°
Mean motion
1.24989 °/min
Orbital period
288.02 mins
BSTAR
0
Loading maneuver chart data...
Computing Atmospheric mass density...
Loading historical data...
Loading historical data...
Loading historical data...
Loading historical data...
Loading historical data...
Loading historical data...
Loading historical data...
Other satellites on launch #24 in the year 2018 (2018-03-09 UTC)

Documentation

Showing up to 5 results
|